TimeCDT,TemperatureF,Dew PointF,Humidity,Sea Level PressureIn,VisibilityMPH,Wind Direction,Wind SpeedMPH,Gust SpeedMPH,PrecipitationIn,Events,Conditions,WindDirDegrees,DateUTC
12:15 AM,73.4,60.8,65,30.12,10.0,Calm,Calm,-,N/A,,Clear,0,2013-06-28 05:15:00
12:35 AM,72.3,60.3,66,30.14,10.0,NNW,4.6,-,N/A,,Clear,330,2013-06-28 05:35:00
12:55 AM,70.3,60.6,71,30.14,10.0,NNW,5.8,-,N/A,,Clear,340,2013-06-28 05:55:00
1:35 AM,70.7,59.9,69,30.15,10.0,Calm,Calm,-,N/A,,Clear,0,2013-06-28 06:35:00
1:55 AM,69.8,60.1,71,30.15,10.0,NW,3.5,-,N/A,,Clear,320,2013-06-28 06:55:00
2:15 AM,68.9,59.0,71,30.15,10.0,North,3.5,-,N/A,,Clear,350,2013-06-28 07:15:00
2:35 AM,68.4,58.6,71,30.15,10.0,Calm,Calm,-,N/A,,Clear,0,2013-06-28 07:35:00
2:55 AM,67.1,57.9,72,30.16,10.0,WNW,4.6,-,N/A,,Clear,290,2013-06-28 07:55:00
3:15 AM,65.3,57.2,75,30.16,10.0,West,5.8,-,N/A,,Clear,280,2013-06-28 08:15:00
3:35 AM,66.2,56.3,70,30.16,10.0,WNW,6.9,-,N/A,,Clear,300,2013-06-28 08:35:00
3:55 AM,63.9,56.3,76,30.16,10.0,WNW,6.9,-,N/A,,Clear,300,2013-06-28 08:55:00
4:15 AM,63.5,55.8,76,30.16,10.0,WNW,5.8,-,N/A,,Clear,300,2013-06-28 09:15:00
4:35 AM,64.0,55.0,73,30.15,10.0,WNW,5.8,-,N/A,,Clear,290,2013-06-28 09:35:00
4:55 AM,62.8,55.2,76,30.15,10.0,WNW,5.8,-,N/A,,Clear,290,2013-06-28 09:55:00
5:15 AM,63.0,54.7,74,30.15,10.0,NW,6.9,-,N/A,,Clear,320,2013-06-28 10:15:00
5:35 AM,64.4,53.2,67,30.15,10.0,NW,8.1,-,N/A,,Clear,310,2013-06-28 10:35:00
5:55 AM,62.6,53.6,72,30.15,10.0,WNW,6.9,-,N/A,,Clear,300,2013-06-28 10:55:00
6:15 AM,62.1,53.4,73,30.15,10.0,WNW,5.8,-,N/A,,Clear,300,2013-06-28 11:15:00
6:35 AM,61.7,53.2,74,30.16,10.0,WNW,5.8,-,N/A,,Clear,300,2013-06-28 11:35:00
6:55 AM,63.1,53.2,70,30.16,10.0,WNW,6.9,-,N/A,,Clear,300,2013-06-28 11:55:00
7:55 AM,67.3,54.3,63,30.17,10.0,NNW,9.2,-,N/A,,Clear,330,2013-06-28 12:55:00
8:15 AM,69.1,53.6,58,30.17,10.0,NNW,10.4,-,N/A,,Clear,340,2013-06-28 13:15:00
8:35 AM,71.1,52.7,52,30.17,10.0,NNW,12.7,-,N/A,,Clear,340,2013-06-28 13:35:00
8:55 AM,72.7,53.1,50,30.17,10.0,North,12.7,-,N/A,,Clear,350,2013-06-28 13:55:00
9:15 AM,74.1,51.8,46,30.17,10.0,North,13.8,-,N/A,,Clear,350,2013-06-28 14:15:00
9:35 AM,75.2,50.4,42,30.17,10.0,NNW,16.1,20.7,N/A,,Clear,340,2013-06-28 14:35:00
9:55 AM,76.1,49.1,39,30.17,10.0,NNW,17.3,23.0,N/A,,Clear,340,2013-06-28 14:55:00
10:15 AM,76.8,48.4,37,30.17,10.0,NNW,17.3,-,N/A,,Clear,340,2013-06-28 15:15:00
10:35 AM,77.4,48.6,36,30.16,10.0,North,17.3,23.0,N/A,,Clear,350,2013-06-28 15:35:00
10:55 AM,77.9,47.8,35,30.16,10.0,North,18.4,-,N/A,,Clear,350,2013-06-28 15:55:00
11:15 AM,79.2,49.1,35,30.16,10.0,NNW,17.3,21.9,N/A,,Clear,330,2013-06-28 16:15:00
11:35 AM,79.3,47.8,33,30.16,10.0,NNW,13.8,20.7,N/A,,Clear,340,2013-06-28 16:35:00
11:55 AM,79.7,46.8,31,30.16,10.0,NNW,16.1,26.5,N/A,,Clear,330,2013-06-28 16:55:00
12:15 PM,80.4,48.0,32,30.16,10.0,NNW,21.9,28.8,N/A,,Clear,330,2013-06-28 17:15:00
12:35 PM,80.6,45.5,29,30.16,10.0,NNW,19.6,26.5,N/A,,Clear,330,2013-06-28 17:35:00
12:55 PM,80.6,46.0,30,30.16,10.0,NNW,18.4,27.6,N/A,,Clear,340,2013-06-28 17:55:00
1:15 PM,81.7,44.8,27,30.15,10.0,NNW,17.3,25.3,N/A,,Clear,340,2013-06-28 18:15:00
1:35 PM,81.7,45.7,28,30.15,10.0,NNW,18.4,27.6,N/A,,Clear,340,2013-06-28 18:35:00
1:55 PM,81.9,43.0,25,30.14,10.0,NW,17.3,28.8,N/A,,Clear,320,2013-06-28 18:55:00
2:15 PM,82.6,43.5,25,30.14,10.0,NNW,20.7,25.3,N/A,,Clear,340,2013-06-28 19:15:00
2:35 PM,82.4,45.1,27,30.13,10.0,North,18.4,24.2,N/A,,Clear,350,2013-06-28 19:35:00
2:55 PM,83.1,44.1,25,30.13,10.0,NNW,15.0,25.3,N/A,,Clear,330,2013-06-28 19:55:00
3:15 PM,82.8,46.6,28,30.12,10.0,NNW,20.7,25.3,N/A,,Clear,340,2013-06-28 20:15:00
3:35 PM,83.1,46.2,27,30.12,10.0,North,17.3,25.3,N/A,,Clear,350,2013-06-28 20:35:00
3:55 PM,83.3,46.4,27,30.11,10.0,NNW,15.0,24.2,N/A,,Clear,340,2013-06-28 20:55:00
4:15 PM,83.1,45.5,27,30.11,10.0,North,18.4,25.3,N/A,,Clear,360,2013-06-28 21:15:00
4:35 PM,83.1,45.9,27,30.10,10.0,North,12.7,24.2,N/A,,Clear,350,2013-06-28 21:35:00
4:55 PM,83.3,46.8,28,30.10,10.0,North,16.1,23.0,N/A,,Clear,10,2013-06-28 21:55:00
5:15 PM,83.3,46.6,28,30.10,10.0,NNW,16.1,20.7,N/A,,Clear,340,2013-06-28 22:15:00
5:35 PM,83.3,46.2,27,30.10,10.0,NNW,17.3,26.5,N/A,,Clear,340,2013-06-28 22:35:00
5:55 PM,83.7,46.2,27,30.09,10.0,NNW,19.6,28.8,N/A,,Clear,340,2013-06-28 22:55:00
6:15 PM,83.3,45.9,27,30.08,10.0,North,18.4,26.5,N/A,,Clear,350,2013-06-28 23:15:00
6:35 PM,83.3,45.3,26,30.08,10.0,NNW,16.1,25.3,N/A,,Clear,330,2013-06-28 23:35:00
6:55 PM,82.8,48.0,30,30.08,10.0,North,13.8,19.6,N/A,,Clear,360,2013-06-28 23:55:00
7:15 PM,82.4,47.5,29,30.07,10.0,North,16.1,25.3,N/A,,Clear,360,2013-06-29 00:15:00
7:35 PM,81.3,49.8,33,30.08,10.0,NNE,16.1,20.7,N/A,,Clear,30,2013-06-29 00:35:00
7:55 PM,79.9,51.8,38,30.08,10.0,NNE,10.4,-,N/A,,Clear,30,2013-06-29 00:55:00
8:15 PM,79.0,50.2,36,30.08,10.0,NNE,13.8,19.6,N/A,,Clear,20,2013-06-29 01:15:00
8:35 PM,78.1,50.0,37,30.09,10.0,NNE,12.7,18.4,N/A,,Clear,20,2013-06-29 01:35:00
8:55 PM,75.6,51.8,43,30.09,10.0,North,8.1,-,N/A,,Clear,360,2013-06-29 01:55:00
9:15 PM,73.6,51.8,46,30.10,10.0,North,8.1,-,N/A,,Clear,10,2013-06-29 02:15:00
9:35 PM,69.6,53.6,57,30.10,10.0,North,6.9,-,N/A,,Clear,360,2013-06-29 02:35:00
9:55 PM,69.4,53.4,57,30.10,10.0,North,5.8,-,N/A,,Clear,350,2013-06-29 02:55:00
10:15 PM,69.3,53.1,56,30.10,10.0,NNW,5.8,-,N/A,,Clear,340,2013-06-29 03:15:00
10:35 PM,70.3,52.9,54,30.11,10.0,NNW,5.8,-,N/A,,Clear,330,2013-06-29 03:35:00
10:55 PM,69.1,53.1,57,30.11,10.0,NW,3.5,-,N/A,,Clear,320,2013-06-29 03:55:00
11:15 PM,70.0,52.7,54,30.10,10.0,NW,4.6,-,N/A,,Clear,320,2013-06-29 04:15:00
11:35 PM,69.1,52.7,56,30.10,10.0,NW,4.6,-,N/A,,Clear,320,2013-06-29 04:35:00
11:55 PM,67.5,52.9,59,30.10,10.0,NW,4.6,-,N/A,,Clear,310,2013-06-29 04:55:00